FW1831 Weather Reports


time (UTC)temp
C
wind
direction
speed
KPH
gust
KPH
rain 1hr
cm
rain 24hr
cm
rain mn
cm
humidity
%
barometer
mb
20260505041538 8 333 0.0 0.0 0.23 1.63 0.46 95 1014.0
20260505040037 8 333 0.0 1.6 0.20 1.55 0.38 95 1014.1
20260505034533 8 340 1.6 6.4 0.20 1.45 0.33 95 1014.3
20260505033036 8 328 0.0 1.6 0.18 1.42 0.25 95 1014.5
20260505031532 8 282 0.0 3.2 0.20 1.40 0.23 95 1014.5
20260505030032 8 266 0.0 1.6 0.15 1.35 0.18 95 1014.5
20260505024532 8 265 0.0 1.6 0.13 1.27 0.13 95 1014.5
20260505023030 8 359 0.0 1.6 0.08 1.24 0.08 95 1014.5
20260505021531 8 348 0.0 1.6 0.05 1.19 0.05 95 1014.5
20260505020028 8 335 0.0 6.4 0.03 1.17 0.03 95 1014.5
20260505014526 8 265 0.0 0.0 0.00 1.17 0.00 95 1014.3
20260505013025 8 265 0.0 1.6 0.00 1.17 0.00 95 1014.2
20260505011525 8 269 0.0 3.2 0.00 1.17 0.00 95 1014.5
20260505010021 9 267 0.0 3.2 0.00 1.17 0.00 95 1014.7
20260505004523 9 269 0.0 1.6 0.00 1.17 0.00 95 1015.0
20260505003017 9 264 0.0 1.6 0.00 1.17 0.00 95 1015.5
20260505001516 9 271 0.0 3.2 0.00 1.17 0.00 95 1016.0
20260505000022 9 264 0.0 3.2 0.00 1.17 0.00 95 1016.3
20260504234511 9 268 0.0 3.2 0.00 1.17 0.00 95 1016.4
20260504233012 8 284 0.0 1.6 0.00 1.17 0.00 95 1016.7
20260504231510 8 285 0.0 3.2 0.00 1.17 0.00 95 1016.8
20260504230007 8 360 0.0 1.6 0.00 1.17 0.00 95 1016.9
20260504224505 8 359 0.0 4.8 0.00 1.17 0.00 95 1017.0
20260504223007 9 264 0.0 0.0 0.03 1.17 0.00 94 1017.1
20260504221604 9 264 0.0 4.8 0.05 1.17 0.00 94 1017.2
20260504220056 9 280 0.0 3.2 0.08 1.17 0.00 94 1017.6
20260504214654 8 262 0.0 1.6 0.13 1.17 1.17 94 1018.0
20260504213059 9 9 0.0 1.6 0.13 1.14 1.14 94 1018.2
20260504211554 9 349 0.0 1.6 0.15 1.12 1.12 94 1018.4
20260504210052 9 337 0.0 1.6 0.15 1.09 1.09 94 1018.3
20260504204552 9 266 0.0 3.2 0.25 1.04 1.04 94 1018.3
20260504203053 9 269 0.0 1.6 0.33 1.02 1.02 94 1018.4
20260504201601 9 264 0.0 3.2 0.33 0.99 0.99 93 1018.5
20260504200049 10 23 0.0 1.6 0.25 0.91 0.91 93 1018.5
20260504194551 10 23 0.0 0.0 0.13 0.79 0.79 93 1018.3
20260504193045 10 23 0.0 0.0 0.05 0.71 0.71 92 1018.3
20260504191554 10 23 0.0 0.0 0.08 0.66 0.66 92 1017.9
20260504190046 10 292 0.0 1.6 0.15 0.66 0.66 92 1017.9
20260504184555 10 292 0.0 0.0 0.20 0.66 0.66 92 1017.7
20260504183042 10 292 0.0 1.6 0.25 0.64 0.64 92 1017.9
20260504181540 10 293 0.0 1.6 0.25 0.58 0.58 91 1017.9
20260504180041 10 356 0.0 1.6 0.28 0.51 0.51 91 1018.0
20260504174538 10 307 0.0 3.2 0.28 0.43 0.43 90 1018.1
20260504173034 11 253 0.0 1.6 0.25 0.38 0.38 90 1017.9
20260504171534 11 277 0.0 1.6 0.20 0.33 0.33 90 1017.6
20260504090107 13 131 1.6 3.2 0.00 0.00 0.00 79 1017.3
20260504081555 13 136 0.0 1.6 0.00 0.00 0.00 81 1017.0